Location: ??????????
(44.2167°N, 135.5333°E)
Time: 15:24:59
(UTC+00:00)

Cosmos 1674 Rocket - Pass Details

Date: 15 June 2025
Orbit: 598 x 622 km, 82.5° (Epoch: 15 July)

Event Time Altitude Azimuth Distance (km) Brightness Sun altitude
Exits shadow 16:11:00 55° 181° (S) 728 3.5 -20.4°
Maximum altitude 16:11:56 86° 98° (E) 610 3.4 -20.4°
Drops below altitude 10° 16:16:16 10° 9° (N) 1,963 7.3 -20.1°
Sets 16:18:30 0° 9° (N) 2,875 8.5 -20.0°
